星链-35145(STARLINK-35145)

导读

STARLINK-35145是美国太空探索技术公司(SpaceX)于2025年9月21日发射的星链(Starlink)卫星,属于Starlink V1.0平台,运营方为SpaceX,服务于星链全球卫星互联网项目。该卫星运行在近地轨道,倾角43.001°,近地点约355公里,远地点约357公里,周期约91.67分钟,旨在为全球提供高速低延迟互联网接入,助力缩小数字鸿沟。卫星采用霍尔推进器,具备自主避撞能力,寿命末期会离轨坠入大气层焚毁。

基本信息
目录编号:
65685
目录名称:
STARLINK-35145
国际标识:
2025-212K
轨道中心:
EARTH
卫星名称:
星链-35145
卫星全名:
星链-35145(STARLINK-35145)
卫星状态:
在轨 (已飞行265 天)
发射日期:
2025-09-21 UTC
国别 :
美国 (US)
星等 :
--
轨道信息
数据来源 国际轨道数据
星历时间: 2026-06-12T21:24:29+0800
1天前
查看轨道信息
半长轴: 6840.768km
偏心率: 0.0001072
轨道倾角: 53.160°
近地点辐角 84.397°
升交点赤经 264.653°
平近点角 275.715°
近地点: 461.897km
远地点: 463.365km
周期: 93.846分钟
每日圈数: 15.344244
详细信息
固有亮度:
5
最大亮度:
2.5
卫星平台:
Starlink V1.0
覆盖范围:
全球
运营商:
太空探索技术公司
运营商所在国:
美国
制造商(研发单位):
太空探索技术公司
制造商所在国:
美国
使用方式:
暂无
卫星简介
Starlink 计划是 SpaceX 推出的全球卫星互联网项目,通过发射低轨道卫星,为全球尤其是偏远地区提供高速、低延迟的互联网服务。自 2019 年起,Starlink 已部署数千颗卫星,旨在缩小全球数字鸿沟,推动互联网普及。该项目还为军事、航空等行业提供通信支持,带来广泛经济效益。
2D轨道图
3D轨道图
轨道高度分析图
轨道倾角分析图
轨道综合分析图
查看轨道综合分析图